TimeICT,TemperatureF,Dew PointF,Humidity,Sea Level PressureIn,VisibilityMPH,Wind Direction,Wind SpeedMPH,Gust SpeedMPH,PrecipitationIn,Events,Conditions,WindDirDegrees,DateUTC
12:00 AM,84.2,75.2,74,29.80,5.6,WNW,9.2,-,N/A,,Mostly Cloudy,300,2013-03-29 17:00:00
12:30 AM,84.2,75.2,74,29.80,5.6,WNW,6.9,-,N/A,,Scattered Clouds,290,2013-03-29 17:30:00
1:00 AM,86,74,59,29.75,6,Calm,Calm,,,,Scattered Clouds,,2013-03-29 18:00:00
3:30 AM,82.4,75.2,79,29.74,5.6,NNW,4.6,-,N/A,,Scattered Clouds,330,2013-03-29 20:30:00
4:00 AM,80.6,75.2,84,29.77,5.6,NW,4.6,-,N/A,,Mostly Cloudy,320,2013-03-29 21:00:00
4:30 AM,82.4,75.2,79,29.77,5.6,NNW,3.5,-,N/A,,Scattered Clouds,340,2013-03-29 21:30:00
5:00 AM,82.4,75.2,79,29.77,5.6,NW,3.5,-,N/A,,Scattered Clouds,320,2013-03-29 22:00:00
5:30 AM,82.4,75.2,79,29.77,5.6,NNW,3.5,-,N/A,,Scattered Clouds,330,2013-03-29 22:30:00
6:00 AM,82.4,75.2,79,29.77,5.0,Calm,Calm,-,N/A,,Scattered Clouds,0,2013-03-29 23:00:00
6:30 AM,80.6,75.2,84,29.77,5.0,Calm,Calm,-,N/A,,Mostly Cloudy,0,2013-03-29 23:30:00
7:00 AM,81,77,83,29.74,6,Calm,Calm,,,,Scattered Clouds,,2013-03-30 00:00:00
7:00 AM,80.6,75.2,84,29.80,4.3,Calm,Calm,-,N/A,,Mostly Cloudy,0,2013-03-30 00:00:00
7:30 AM,82.4,75.2,79,29.80,4.3,NE,4.6,-,N/A,,Partly Cloudy,50,2013-03-30 00:30:00
8:00 AM,84.2,75.2,74,29.80,4.3,East,3.5,-,N/A,,Mostly Cloudy,80,2013-03-30 01:00:00
8:30 AM,86.0,75.2,70,29.83,4.3,ENE,4.6,-,N/A,,Mostly Cloudy,70,2013-03-30 01:30:00
9:00 AM,87.8,73.4,62,29.83,4.3,Variable,3.5,-,N/A,,Mostly Cloudy,0,2013-03-30 02:00:00
9:30 AM,87.8,73.4,62,29.83,4.3,North,3.5,-,N/A,,Mostly Cloudy,10,2013-03-30 02:30:00
10:00 AM,91.4,75.2,59,29.83,4.3,Variable,2.3,-,N/A,,Mostly Cloudy,0,2013-03-30 03:00:00
10:30 AM,87.8,75.2,66,29.83,4.3,WNW,6.9,-,N/A,,Mostly Cloudy,290,2013-03-30 03:30:00
11:00 AM,89.6,75.2,62,29.83,4.3,West,6.9,-,N/A,,Mostly Cloudy,260,2013-03-30 04:00:00
11:30 AM,89.6,75.2,62,29.83,4.3,West,9.2,-,N/A,,Mostly Cloudy,280,2013-03-30 04:30:00
12:00 PM,91.4,75.2,59,29.80,4.3,West,6.9,-,N/A,,Mostly Cloudy,270,2013-03-30 05:00:00
12:30 PM,91.4,75.2,59,29.80,4.3,ENE,9.2,-,N/A,,Mostly Cloudy,60,2013-03-30 05:30:00
1:00 PM,89,76,57,29.77,5,NNW,5.8,,,,Haze,330,2013-03-30 06:00:00
1:00 PM,91.4,75.2,59,29.77,4.3,West,9.2,-,N/A,,Mostly Cloudy,260,2013-03-30 06:00:00
1:30 PM,89.6,75.2,62,29.77,4.3,WNW,11.5,-,N/A,,Mostly Cloudy,290,2013-03-30 06:30:00
2:00 PM,89.6,75.2,62,29.74,4.3,West,11.5,-,N/A,,Mostly Cloudy,280,2013-03-30 07:00:00
2:30 PM,91.4,75.2,59,29.74,4.3,West,11.5,-,N/A,,Mostly Cloudy,280,2013-03-30 07:30:00
3:00 PM,89.6,77.0,66,29.71,4.3,West,12.7,-,N/A,,Mostly Cloudy,270,2013-03-30 08:00:00
3:30 PM,89.6,75.2,62,29.71,4.3,WNW,13.8,-,N/A,,Mostly Cloudy,290,2013-03-30 08:30:00
4:00 PM,89.6,75.2,62,29.71,4.3,West,13.8,-,N/A,,Mostly Cloudy,280,2013-03-30 09:00:00
4:30 PM,89.6,75.2,62,29.71,4.3,West,13.8,-,N/A,,Mostly Cloudy,280,2013-03-30 09:30:00
5:00 PM,87.8,75.2,66,29.71,4.3,West,15.0,-,N/A,,Mostly Cloudy,280,2013-03-30 10:00:00
5:30 PM,87.8,75.2,66,29.71,4.3,West,15.0,-,N/A,,Mostly Cloudy,280,2013-03-30 10:30:00
6:00 PM,87.8,75.2,66,29.74,4.3,West,13.8,-,N/A,,Mostly Cloudy,280,2013-03-30 11:00:00
6:30 PM,86.0,75.2,70,29.74,4.3,WNW,10.4,-,N/A,,Mostly Cloudy,290,2013-03-30 11:30:00
7:00 PM,87,78,68,29.71,5,WNW,3.5,,,,Mist,300,2013-03-30 12:00:00
7:00 PM,86.0,75.2,70,29.74,4.3,West,11.5,-,N/A,,Mostly Cloudy,280,2013-03-30 12:00:00
7:30 PM,86.0,75.2,70,29.74,4.3,WNW,10.4,-,N/A,,Mostly Cloudy,290,2013-03-30 12:30:00
8:00 PM,86.0,75.2,70,29.77,4.3,WNW,10.4,-,N/A,,Mostly Cloudy,290,2013-03-30 13:00:00
8:30 PM,86.0,77.0,74,29.77,4.3,West,9.2,-,N/A,,Mostly Cloudy,280,2013-03-30 13:30:00
9:00 PM,86.0,75.2,70,29.77,4.3,WNW,8.1,-,N/A,,Mostly Cloudy,290,2013-03-30 14:00:00
9:30 PM,86.0,77.0,74,29.80,4.3,WNW,9.2,-,N/A,,Mostly Cloudy,290,2013-03-30 14:30:00
10:00 PM,84.2,77.0,79,29.80,4.3,NW,3.5,-,N/A,,Mostly Cloudy,310,2013-03-30 15:00:00
10:30 PM,84.2,77.0,79,29.80,4.3,West,5.8,-,N/A,,Mostly Cloudy,280,2013-03-30 15:30:00
11:00 PM,84.2,77.0,79,29.80,4.3,WNW,5.8,-,N/A,,Mostly Cloudy,290,2013-03-30 16:00:00
11:30 PM,84.2,77.0,79,29.80,4.3,WNW,4.6,-,N/A,,Mostly Cloudy,300,2013-03-30 16:30:00